TimeEST,TemperatureF,Dew PointF,Humidity,Sea Level PressureIn,VisibilityMPH,Wind Direction,Wind SpeedMPH,Gust SpeedMPH,PrecipitationIn,Events,Conditions,WindDirDegrees,DateUTC
12:55 AM,34.0,18.7,54,30.12,10.0,West,11.5,-,N/A,,Overcast,260,2013-01-04 05:55:00
1:55 AM,33.6,18.7,54,30.12,10.0,West,8.1,19.6,N/A,,Overcast,260,2013-01-04 06:55:00
2:55 AM,33.1,19.4,57,30.14,10.0,West,15.0,20.7,N/A,,Overcast,260,2013-01-04 07:55:00
3:55 AM,32.5,20.1,60,30.13,10.0,WSW,10.4,-,N/A,,Overcast,240,2013-01-04 08:55:00
4:55 AM,32.0,20.3,62,30.13,10.0,WSW,9.2,-,N/A,,Overcast,240,2013-01-04 09:55:00
5:55 AM,31.6,20.5,63,30.14,10.0,WSW,13.8,-,N/A,,Overcast,240,2013-01-04 10:55:00
6:55 AM,31.5,21.2,66,30.14,10.0,WSW,12.7,-,N/A,,Overcast,240,2013-01-04 11:55:00
7:55 AM,31.5,19.6,62,30.13,10.0,WSW,12.7,-,N/A,,Overcast,240,2013-01-04 12:55:00
8:55 AM,31.5,20.3,63,30.15,10.0,WSW,10.4,-,N/A,,Overcast,240,2013-01-04 13:55:00
9:01 AM,32.0,21.2,64,30.15,10.0,SW,13.8,-,N/A,,Overcast,230,2013-01-04 14:01:00
9:03 AM,32.0,21.2,64,30.15,10.0,WSW,15.0,-,N/A,,Overcast,240,2013-01-04 14:03:00
9:04 AM,32.0,21.2,64,30.15,10.0,WSW,13.8,-,N/A,Snow,Light Snow,250,2013-01-04 14:04:00
9:24 AM,32.0,21.2,64,30.15,10.0,WSW,8.1,-,N/A,Snow,Light Snow,240,2013-01-04 14:24:00
9:30 AM,32.0,21.2,64,30.16,10.0,WSW,6.9,-,N/A,Snow,Light Snow,250,2013-01-04 14:30:00
9:55 AM,31.8,22.6,69,30.15,10.0,WSW,10.4,-,0.00,Snow,Light Snow,250,2013-01-04 14:55:00
10:15 AM,32.0,21.2,64,30.15,10.0,West,10.4,-,N/A,,Mostly Cloudy,270,2013-01-04 15:15:00
10:28 AM,32.0,21.2,64,30.15,10.0,West,11.5,20.7,N/A,,Mostly Cloudy,270,2013-01-04 15:28:00
10:30 AM,32.0,21.2,64,30.14,10.0,WSW,6.9,20.7,N/A,,Mostly Cloudy,240,2013-01-04 15:30:00
10:55 AM,33.3,20.7,60,30.14,10.0,WNW,10.4,21.9,0.00,,Overcast,300,2013-01-04 15:55:00
11:55 AM,34.7,19.4,54,30.11,10.0,West,16.1,21.9,N/A,,Overcast,270,2013-01-04 16:55:00
12:55 PM,36.1,20.1,52,30.07,10.0,West,10.4,24.2,N/A,,Partly Cloudy,260,2013-01-04 17:55:00
1:55 PM,37.4,19.9,49,30.04,10.0,West,16.1,25.3,N/A,,Clear,280,2013-01-04 18:55:00
2:55 PM,37.9,19.8,48,30.04,10.0,WSW,18.4,24.2,N/A,,Clear,250,2013-01-04 19:55:00
3:55 PM,37.6,19.4,48,30.05,10.0,West,15.0,-,N/A,,Clear,270,2013-01-04 20:55:00
4:55 PM,36.0,19.6,51,30.05,10.0,WSW,17.3,-,N/A,,Clear,240,2013-01-04 21:55:00
5:55 PM,35.2,19.2,52,30.06,10.0,West,11.5,-,N/A,,Clear,260,2013-01-04 22:55:00
6:55 PM,34.7,18.9,52,30.07,10.0,West,13.8,19.6,N/A,,Clear,280,2013-01-04 23:55:00
7:55 PM,35.1,18.0,50,30.07,10.0,West,13.8,24.2,N/A,,Clear,270,2013-01-05 00:55:00
8:55 PM,32.7,17.8,54,30.07,10.0,SW,10.4,-,N/A,,Clear,230,2013-01-05 01:55:00
9:55 PM,34.5,17.1,49,30.07,10.0,SW,9.2,20.7,N/A,,Clear,230,2013-01-05 02:55:00
10:55 PM,33.4,17.1,51,30.09,10.0,SW,11.5,-,N/A,,Clear,230,2013-01-05 03:55:00
11:55 PM,33.3,17.2,52,30.10,10.0,WSW,10.4,-,N/A,,Clear,240,2013-01-05 04:55:00